Location: Mount Wilson Observatory
(34.2257°N, 118.0571°W)
Time: 14:17:05
(UTC-07:00)

ATLAS 3B CENTAUR R/B - Visible Passes

Search period start: 02 September 2014 00:00
Search period end: 12 September 2014 00:00
Orbit: 231 x 8489 km, 28.1° (Epoch: 02 September)

Date Brightness Start Highest point End Pass type
(mag) Time Alt. Az. Time Alt. Az. Time Alt. Az.
02 Sep 4.0 03:26:05 38° SE 03:26:06 38° SE 03:40:56 10° E visible
03 Sep 3.5 04:02:22 46° S 04:04:06 52° SSE 04:23:50 10° E visible
04 Sep 3.6 04:38:24 35° SW 04:42:16 62° SSE 05:07:11 10° E visible
05 Sep 5.3 02:09:44 12° ESE 02:09:44 12° ESE 02:11:00 10° E visible
05 Sep 4.1 05:14:12 21° WSW 05:20:34 68° S 05:51:02 10° E visible
06 Sep 4.6 02:45:20 24° ESE 02:45:20 24° ESE 02:51:50 10° E visible
06 Sep 4.6 05:49:46 10° W 05:58:58 69° S 06:35:08 10° ESE visible
07 Sep 3.8 03:20:42 41° SE 03:20:42 41° SE 03:32:25 10° E visible
08 Sep 3.2 03:55:50 55° S 03:56:19 55° SSE 04:13:15 10° E visible
09 Sep 3.3 04:30:44 44° SW 04:33:18 62° S 04:54:28 10° E visible
10 Sep 3.8 05:05:24 27° WSW 05:10:17 65° S 05:36:02 10° ESE visible
11 Sep 4.9 02:35:32 19° ESE 02:35:32 19° ESE 02:39:08 10° E visible
11 Sep 4.3 05:39:50 14° W 05:47:17 63° S 06:17:45 10° ESE visible
